FW0984 Weather Reports


Display with metric or nautical units.
time (UTC)temp
F
wind
direction
speed
MPH
gust
MPH
rain 1hr
in
rain 24hr
in
rain mn
in
humidity
%
barometer
mb
20260505200043 67 275 1.0 4.0 0.03 0.06 0.06 76 1009.1
20260505194542 68 239 1.0 4.0 0.00 0.03 0.03 70 1008.6
20260505193049 68 264 0.0 3.0 0.00 0.03 0.03 69 1008.6
20260505191532 68 257 0.0 3.0 0.00 0.03 0.03 69 1008.6
20260505190036 68 267 1.0 4.0 0.00 0.03 0.03 68 1008.6
20260505184528 67 274 1.0 3.0 0.00 0.03 0.03 68 1009.0
20260505183026 67 254 0.0 2.0 0.00 0.03 0.03 69 1009.2
20260505181523 67 259 1.0 3.0 0.00 0.03 0.03 68 1009.6
20260505180028 67 264 0.0 0.0 0.00 0.03 0.03 68 1009.6
20260505174518 67 269 0.0 1.0 0.00 0.03 0.03 68 1009.7
20260505173018 66 263 0.0 2.0 0.00 0.03 0.03 67 1009.9
20260505171517 66 263 0.0 2.0 0.00 0.03 0.03 68 1009.9
20260505170019 66 261 0.0 2.0 0.00 0.03 0.03 68 1009.9
20260505164515 66 275 1.0 3.0 0.00 0.03 0.03 67 1009.9
20260505163014 66 257 1.0 4.0 0.00 0.03 0.03 68 1010.0
20260505161516 66 267 0.0 3.0 0.00 0.03 0.03 69 1009.9
20260505153010 66 235 1.0 4.0 0.00 0.03 0.03 73 1009.7
20260505151508 65 255 0.0 3.0 0.00 0.03 0.03 73 1009.6
20260505140104 59 248 0.0 0.0 0.00 0.03 0.03 90 1009.0
20260505124557 58 257 0.0 1.0 0.00 0.03 0.03 93 1009.6
20260505123057 58 257 0.0 0.0 0.01 0.03 0.03 92 1009.8
20260505121547 57 260 0.0 1.0 0.01 0.03 0.03 92 1009.7
20260505120054 57 9 0.0 2.0 0.01 0.03 0.03 91 1009.9
20260505114543 58 275 0.0 2.0 0.02 0.03 0.03 90 1009.8
20260505113040 58 279 0.0 0.0 0.01 0.02 0.02 89 1009.4
20260505111538 58 215 0.0 0.0 0.02 0.02 0.02 87 1009.0
20260505101530 61 236 0.0 3.0 0.00 0.00 0.00 78 1009.9
20260505100029 62 333 0.0 8.0 0.00 0.00 0.00 73 1009.9
20260505094521 62 9 0.0 0.0 0.00 0.00 0.00 67 1009.6
20260505093018 63 180 0.0 0.0 0.00 0.00 0.00 67 1009.0
20260505091518 63 244 0.0 0.0 0.00 0.00 0.00 65 1008.8
20260505090015 63 244 0.0 0.0 0.00 0.00 0.00 65 1008.5
20260505084513 63 244 0.0 0.0 0.00 0.00 0.00 65 1008.5
20260505083017 63 242 0.0 0.0 0.00 0.00 0.00 64 1008.3
20260505081508 63 242 0.0 0.0 0.00 0.00 0.00 64 1008.2
20260505080016 63 242 0.0 0.0 0.00 0.00 0.00 63 1008.1
20260505074505 64 242 0.0 0.0 0.00 0.00 0.00 63 1008.1
20260505073006 64 242 0.0 0.0 0.00 0.00 0.00 62 1007.9
20260505071503 64 245 0.0 2.0 0.00 0.00 0.00 62 1007.8
20260505070105 65 256 0.0 2.0 0.00 0.00 0.00 62 1007.7
20260505064610 65 258 0.0 2.0 0.00 0.00 0.00 62 1007.6
20260505063101 65 246 0.0 0.0 0.00 0.00 0.00 61 1007.7
20260505061559 65 252 1.0 2.0 0.00 0.00 0.00 61 1007.7
20260505054555 66 248 1.0 3.0 0.00 0.00 0.00 61 1007.0
20260505053052 66 252 1.0 11.0 0.00 0.00 0.00 61 1007.0
20260505051550 66 254 1.0 3.0 0.00 0.00 0.00 61 1007.0
20260505041551 67 243 0.0 2.0 0.00 0.00 0.00 61 1007.7
20260505040041 67 254 0.0 2.0 0.00 0.00 0.00 60 1007.8
20260505034538 67 255 0.0 3.0 0.00 0.00 0.00 60 1007.8
20260505033037 67 250 0.0 2.0 0.00 0.00 0.00 61 1007.7
20260505031536 67 248 0.0 2.0 0.00 0.00 0.00 60 1007.7
20260505030046 67 246 0.0 1.0 0.00 0.00 0.00 60 1007.5
20260505024535 67 241 0.0 2.0 0.00 0.00 0.00 59 1007.3
20260505023034 68 248 0.0 0.0 0.00 0.00 0.00 58 1007.1
20260505021532 68 246 0.0 0.0 0.00 0.00 0.00 58 1007.0
20260505020039 68 240 0.0 0.0 0.00 0.00 0.00 57 1006.8
20260505014538 69 245 0.0 1.0 0.00 0.00 0.00 57 1006.8
20260505013037 69 259 0.0 3.0 0.00 0.00 0.00 56 1006.6
20260505011630 69 249 0.0 1.0 0.00 0.00 0.00 54 1006.5
20260505010027 70 241 0.0 1.0 0.00 0.00 0.00 53 1006.4
20260505004539 71 263 0.0 0.0 0.00 0.00 0.00 51 1006.4
20260505003048 72 214 0.0 2.0 0.00 0.00 0.00 50 1006.4
20260505001525 72 256 0.0 0.0 0.00 0.00 0.00 48 1006.5
20260505000030 73 259 0.0 3.0 0.00 0.00 0.00 47 1006.6
20260504234523 73 257 1.0 3.0 0.00 0.00 0.00 48 1006.8
20260504233023 73 258 2.0 4.0 0.00 0.00 0.00 47 1006.8
20260504231522 73 266 1.0 4.0 0.00 0.00 0.00 49 1006.7
20260504230021 72 249 2.0 5.0 0.00 0.00 0.00 52 1006.9
20260504224520 72 242 0.0 0.0 0.00 0.00 0.00 55 1007.2
20260504223020 73 250 0.0 0.0 0.00 0.00 0.00 56 1007.3
20260504221521 73 246 0.0 0.0 0.00 0.00 0.00 54 1007.2
20260504220016 74 252 0.0 0.0 0.00 0.00 0.00 56 1007.7
20260504214518 74 266 0.0 2.0 0.00 0.00 0.00 50 1007.8
20260504213022 74 319 0.0 2.0 0.00 0.00 0.00 52 1007.9
20260504211528 74 260 0.0 2.0 0.00 0.00 0.00 53 1008.1
20260504210010 74 261 0.0 1.0 0.00 0.00 0.00 52 1008.3
20260504204507 74 232 0.0 3.0 0.00 0.00 0.00 51 1008.4
20260504203006 74 259 1.0 4.0 0.00 0.00 0.00 49 1008.7
20260504201502 73 261 0.0 3.0 0.00 0.00 0.00 54 1008.8